Weather History for KTYS - November, 2013

Change the Weather History Date:

Monday, November 4, 2013

  Actual Average Record
Temperature  
Mean Temperature 51 °F 54 °F  
Max Temperature 66 °F 65 °F 80 °F (1974)
Min Temperature 36 °F 42 °F 18 °F (1879)
Degree Days  
Heating Degree Days 14 12  
Month to date heating degree days 38 45  
Since 1 July heating degree days 193 264  
Cooling Degree Days 0 0  
Month to date cooling degree days 0 0  
Year to date cooling degree days 1445 1523  
Growing Degree Days 1 (Base 50)    
Moisture  
Dew Point 37 °F    
Average Humidity 60    
Maximum Humidity 85    
Minimum Humidity 34    
Precipitation  
Precipitation 0.00 in 0.12 in 1.52 in (1985)
Month to date precipitation 0.37 0.46  
Year to date precipitation 57.08 39.81  
Snow  
Snow 0.00 in 0.00 in - ()
Month to date snowfall 0.0 0.0  
Since 1 July snowfall 0.0 0.0  
Since 1 September snowfall 0.0 0.0  
Snow Depth 0.00 in    
Sea Level Pressure  
Sea Level Pressure 30.37 in    
Wind  
Wind Speed 2 mph (NNE)    
Max Wind Speed 8 mph    
Max Gust Speed 10 mph    
Visibility 10 miles    
Events      
T = Trace of Precipitation, MM = Missing Value Source: NWS Daily Summary

Daily Weather History Graph

Daily Weather History Graph

Search for Another Location

Airport or City:

Trip Planner

Search our weather history database for the weather conditions in past years. The results will help you decide how hot, cold, wet, or windy it might be!

Date:

Astronomy

Nov. 04, 2013 Rise Set
Actual Time 7:01 AM EST 5:37 PM EST
Civil Twilight 6:34 AM EST 6:03 PM EST
Nautical Twilight 6:04 AM EST 6:34 PM EST
Astronomical Twilight 5:34 AM EST 7:04 PM EST
Moon 8:08 AM EST (11/4) 6:43 PM EST (11/4)
Length of Visible Light 11h 29m
Length of Day
10h 35m
New Moon, 2% of the Moon is Illuminated
Nov 4
New Moon
Nov 10
First Quarter
Nov 17
Full
Nov 25
Last Quarter
Dec 2
New

Hourly Weather History & Observations

Time (EST) Temp. Windchill Dew Point Humidity Pressure Visibility Wind Dir Wind Speed Gust Speed Precip Events Conditions
12:53 AM 41.0 °F 38.0 °F 34.0 °F 76% 30.32 in 10.0 mi ENE 4.6 mph - N/A   Clear
1:53 AM 43.0 °F - 34.0 °F 71% 30.32 in 10.0 mi Calm Calm - N/A   Clear
2:53 AM 42.1 °F 40.2 °F 34.0 °F 73% 30.34 in 10.0 mi North 3.5 mph - N/A   Clear
3:53 AM 41.0 °F 37.1 °F 35.1 °F 79% 30.33 in 10.0 mi NNE 5.8 mph - N/A   Clear
4:53 AM 37.0 °F 34.5 °F 33.1 °F 86% 30.36 in 10.0 mi ENE 3.5 mph - N/A   Clear
5:53 AM 37.9 °F - 34.0 °F 86% 30.38 in 10.0 mi Calm Calm - N/A   Clear
6:53 AM 37.0 °F - 34.0 °F 89% 30.38 in 10.0 mi Calm Calm - N/A   Mostly Cloudy
7:53 AM 41.0 °F - 34.0 °F 76% 30.42 in 10.0 mi Calm Calm - N/A   Mostly Cloudy
8:53 AM 45.0 °F - 37.0 °F 74% 30.41 in 10.0 mi Calm Calm - N/A   Mostly Cloudy
9:53 AM 50.0 °F - 37.0 °F 61% 30.41 in 10.0 mi ENE 3.5 mph - N/A   Mostly Cloudy
10:53 AM 54.0 °F - 37.0 °F 53% 30.42 in 10.0 mi Calm Calm - N/A   Mostly Cloudy
11:53 AM 57.9 °F - 37.0 °F 46% 30.42 in 10.0 mi Calm Calm - N/A   Mostly Cloudy
12:53 PM 61.0 °F - 37.0 °F 41% 30.39 in 10.0 mi Variable 5.8 mph - N/A   Scattered Clouds
1:53 PM 63.0 °F - 36.0 °F 37% 30.36 in 10.0 mi Variable 3.5 mph - N/A   Scattered Clouds
2:53 PM 64.9 °F - 36.0 °F 34% 30.35 in 10.0 mi Calm Calm - N/A   Scattered Clouds
3:53 PM 64.0 °F - 37.0 °F 37% 30.33 in 10.0 mi Calm Calm - N/A   Mostly Cloudy
4:53 PM 64.0 °F - 37.0 °F 37% 30.33 in 10.0 mi NNW 3.5 mph - N/A   Mostly Cloudy
5:53 PM 60.1 °F - 39.0 °F 46% 30.33 in 10.0 mi Calm Calm - N/A   Mostly Cloudy
6:53 PM 59.0 °F - 37.9 °F 46% 30.35 in 10.0 mi ENE 3.5 mph - N/A   Mostly Cloudy
7:53 PM 55.0 °F - 39.0 °F 55% 30.36 in 10.0 mi Calm Calm - N/A   Mostly Cloudy
8:53 PM 54.0 °F - 39.9 °F 59% 30.37 in 10.0 mi WSW 4.6 mph - N/A   Mostly Cloudy
9:53 PM 53.1 °F - 39.0 °F 59% 30.37 in 10.0 mi WSW 5.8 mph - N/A   Overcast
10:53 PM 50.0 °F - 41.0 °F 71% 30.38 in 9.0 mi Calm Calm - N/A   Overcast
11:53 PM 48.0 °F - 41.0 °F 77% 30.40 in 9.0 mi Calm Calm - N/A   Mostly Cloudy